Weather Roundup
Issued by NWS Chicago, IL

Home | Current Version | Previous Version | Graphics & Text | Print | Product List | Glossary On
Versions: 1 2 3 4 5 6 7 8 9 10 11 12 13 14 15 16 17 18 19 20 21 22 23 24 25 26 27 28 29 30 31 32 33 34 35 36 37 38 39 40 41 42 43 44 45 46 47 48 49 50
000
NZUS59 KLOT 300821
HRRLOT

CHICAGO AREA WEATHER ROUNDUP
NATIONAL WEATHER SERVICE CHICAGO/ROMEOVILLE IL
300 AM CDT SAT MAY 30 2015

NOTE: "FAIR" INDICATES FEW OR NO CLOUDS BELOW 12,000 FEET WITH NO
SIGNIFICANT WEATHER AND/OR OBSTRUCTIONS TO VISIBILITY.

* THESE STATIONS ARE NOT UNDER NWS QUALITY CONTROL. THEY ALSO MAY NOT
  REPORT WEATHER SUCH AS PRECIPITATION OR FOG.

ILZ005-006-012>014-019>023-300900-
NORTHEAST ILLINOIS

CITY           SKY/WX    TMP DP  RH WIND       PRES   REMARKS
OHARE          CLOUDY    69  64  84 SW5       29.93S
MIDWAY         MOCLDY    72  65  78 SW8       29.93F
AURORA         CLOUDY    70  64  81 SW9       29.95S
LANSING*       CLOUDY    68  63  82 SW7       29.95F
JOLIET*        CLOUDY    71  67  87 SW6       29.94F
WAUKEGAN       CLOUDY    67  62  84 SW5       29.92S
DUPAGE AIRPORT CLOUDY    68  65  90 SW5       29.94R
WHEELING       MOCLDY    70  65  84 SW3       29.94S
KANKAKEE*      CLOUDY    69  67  93 SW6       29.97S
MORRIS*        CLOUDY    69  65  89 W7        29.94S
LEWIS AIRPORT* MOCLDY    69  64  86 SW9       29.95S
NORTHERLY IS     N/A     71  63  75 W5          N/A
$$

WIZ051-052-058>065-066-070>072-300900-
SOUTHEAST WISCONSIN

CITY           SKY/WX    TMP DP  RH WIND       PRES   REMARKS
MILWAUKEE      CLOUDY    67  63  87 CALM      29.91F
KENOSHA*       CLOUDY    66  63  90 SW6       29.92F
RACINE*        CLOUDY    67  64  90 W3        29.92F
BURLINGTON     CLOUDY    64  62  96 SW5       29.92S
WAUKESHA       CLOUDY    63  61  94 CALM      29.93F
WEST BEND      LGT RAIN  63  61  94 CALM      29.91S
$$

INZ001>003-010>013-019-020-300900-
NORTHWEST INDIANA

CITY           SKY/WX    TMP DP  RH WIND       PRES   REMARKS
GARY*          CLOUDY    71  66  84 SW5       29.95S
MICHIGAN CITY* NOT AVBL
RENSSELAER*    NOT AVBL
VALPARAISO     CLOUDY    69  65  86 SW9       29.97S
$$

LMZ740>746-300900-
SOUTHERN LAKE MICHIGAN

STATION/POSITION TIME  SKY/WX   TEMP WIND        PRES    VSBY
                                AIR  DIR/SP/G
                 (UTC)          (F)  (DEG/KT/KT) (MB)    (MI)
HARRISON CRIB    0800            71  220/ 14/ 16   N/A
BURNHAM HARBOR   0800            71  170/  7/  9   N/A
CALUMET HARBOR   0800            69  220/  4/  8   N/A
BURNS HARBOR     0700            70  210/ 12/ 15 1014.6S
MICHIGAN CITY    0800            69  190/ 14/ 15   N/A
$$

ABBREVIATIONS USED IN REMARKS
   TC - TEMPERATURE IN CELSIUS
  WCI - WIND CHILL INDEX
   HX - HEAT INDEX
  VSB - VISIBILITY
$$



USA.gov is the U.S. government's official web portal to all federal, state and local government web resources and services.